sat.trackr.live / text

‹ back to catalog

STARLINK-34146

NORAD 64098 · 2025-110C

PAYLOAD ACTIVE UNKNOWN

§ Identity

Operator
Country
US
Launch date
2025-05-23
Launch site
AFWTR
Launch vehicle
Mass (kg)
RCS (m²)

Purposes: comms

External: N2YO · Heavens-Above · Gunter

§ Orbital elements

Epoch: 2026-09-20T04:44:37.851648Z

Period
93.85 min
Inclination
53.1574°
Eccentricity
0.0001247
Mean motion
15.34405339 rev/d
Perigee alt
461.8 km
Apogee alt
463.5 km
Semi-major
6,840.8 km
B*
4.3735e-4
RAAN
198.9664°
Arg perigee
100.0979°
Mean anomaly
260.0164°
Rev number
7,571

§ Raw data

STARLINK-341461 64098U 25110C   26263.19766032  .00014431  00000+0  43735-3 0  99962 64098  53.1574 198.9664 0001247 100.0979 260.0164 15.34405339 75713

JSON: /api/v1/satellites/64098 · /tle

For live sub-satellite position, see the globe view (requires WebGL).

§ Visibility from observer

Set your observer location to see the next 7 days of passes ≥ 10°. The values pass through the URL so the page stays shareable.

No JS? Fill the form by hand. The geolocation button needs JavaScript.